Location: Mexico
(19.4000°N, 99.1500°W)
Time: 02:05:03
(UTC-06:00)

ISS - Pass Details

Date: 19 November 2017
Orbit: 402 x 407 km, 51.6° (Epoch: 21 November)

Event Time Altitude Azimuth Distance (km) Brightness Sun altitude
Exits shadow 05:25:04 - 10° (N) 1,612 -0.8 -19.3°
Reaches altitude 10° 05:25:58 10° 24° (NNE) 1,444 -0.9 -19.1°
Maximum altitude 05:27:07 11° 45° (NE) 1,360 -0.8 -18.8°
Drops below altitude 10° 05:28:16 10° 66° (ENE) 1,444 -0.3 -18.5°
Sets 05:31:32 0° 101° (ESE) 2,301 1.7 -17.8°
